| time (UTC) | temp F | wind direction | speed MPH | gust MPH | rain 1hr in | rain 24hr in | rain mn in | humidity % | barometer mb |
| 20260902051004 | 61 | 146 | 2.0 | 12.0 | 0.00 | 0.00 | 0.00 | 81 | 1011.2 |
| 20260902050503 | 61 | 93 | 1.0 | 12.0 | 0.00 | 0.00 | 0.00 | 81 | 1011.2 |
| 20260902050008 | 61 | 100 | 2.0 | 7.0 | 0.00 | 0.00 | 0.00 | 81 | 1011.1 |
| 20260902045505 | 61 | 146 | 1.0 | 4.0 | 0.00 | 0.00 | 0.00 | 81 | 1011.1 |
| 20260902045004 | 61 | 137 | 2.0 | 4.0 | 0.00 | 0.00 | 0.00 | 81 | 1011.1 |
| 20260902044506 | 61 | 93 | 1.0 | 6.0 | 0.00 | 0.00 | 0.00 | 82 | 1011.0 |
| 20260902044003 | 62 | 51 | 1.0 | 6.0 | 0.00 | 0.00 | 0.00 | 81 | 1011.1 |
| 20260902043504 | 61 | 137 | 1.0 | 4.0 | 0.00 | 0.00 | 0.00 | 81 | 1011.1 |
| 20260902043005 | 62 | 126 | 1.0 | 4.0 | 0.00 | 0.00 | 0.00 | 81 | 1011.2 |
| 20260902042504 | 62 | 196 | 1.0 | 4.0 | 0.00 | 0.00 | 0.00 | 80 | 1011.3 |
| 20260902042004 | 62 | 120 | 1.0 | 4.0 | 0.00 | 0.00 | 0.00 | 81 | 1011.3 |
| 20260902041506 | 62 | 115 | 2.0 | 4.0 | 0.00 | 0.00 | 0.00 | 81 | 1011.3 |
| 20260902041003 | 62 | 158 | 2.0 | 4.0 | 0.00 | 0.00 | 0.00 | 81 | 1011.3 |
| 20260902040507 | 62 | 126 | 1.0 | 4.0 | 0.00 | 0.00 | 0.00 | 81 | 1011.3 |
| 20260902040003 | 62 | 229 | 2.0 | 4.0 | 0.00 | 0.00 | 0.00 | 80 | 1011.3 |
| 20260902035505 | 62 | 105 | 0.0 | 6.0 | 0.00 | 0.00 | 0.00 | 81 | 1011.2 |
| 20260902035002 | 62 | 137 | 1.0 | 6.0 | 0.00 | 0.00 | 0.00 | 81 | 1011.1 |
| 20260902034504 | 62 | 191 | 1.0 | 4.0 | 0.00 | 0.00 | 0.00 | 80 | 1011.1 |
| 20260902034005 | 62 | 196 | 1.0 | 4.0 | 0.00 | 0.00 | 0.00 | 80 | 1011.2 |
| 20260902033502 | 62 | 119 | 0.0 | 4.0 | 0.00 | 0.00 | 0.00 | 80 | 1011.1 |
| 20260902033004 | 62 | 93 | 0.0 | 3.0 | 0.00 | 0.00 | 0.00 | 80 | 1011.1 |
| 20260902032515 | 62 | 9 | 0.0 | 4.0 | 0.00 | 0.00 | 0.00 | 80 | 1011.0 |
| 20260902032016 | 62 | 34 | 1.0 | 4.0 | 0.00 | 0.00 | 0.00 | 80 | 1011.0 |
| 20260902031531 | 63 | 178 | 1.0 | 6.0 | 0.00 | 0.00 | 0.00 | 80 | 1010.9 |
| 20260902031012 | 63 | 162 | 1.0 | 6.0 | 0.00 | 0.00 | 0.00 | 79 | 1010.8 |
| 20260902030512 | 63 | 164 | 2.0 | 6.0 | 0.00 | 0.00 | 0.00 | 79 | 1010.9 |
| 20260902030028 | 63 | 162 | 1.0 | 4.0 | 0.00 | 0.00 | 0.00 | 79 | 1010.9 |
| 20260902025516 | 63 | 193 | 2.0 | 4.0 | 0.00 | 0.00 | 0.00 | 79 | 1010.8 |
| 20260902025019 | 63 | 178 | 1.0 | 3.0 | 0.00 | 0.00 | 0.00 | 80 | 1010.8 |
| 20260902024530 | 63 | 144 | 1.0 | 3.0 | 0.00 | 0.00 | 0.00 | 79 | 1010.8 |
| 20260902024015 | 63 | 93 | 0.0 | 6.0 | 0.00 | 0.00 | 0.00 | 79 | 1010.7 |
| 20260902023513 | 63 | 111 | 1.0 | 6.0 | 0.00 | 0.00 | 0.00 | 78 | 1010.7 |
| 20260902023027 | 63 | 214 | 1.0 | 4.0 | 0.00 | 0.00 | 0.00 | 79 | 1010.7 |
| 20260902022514 | 64 | 137 | 1.0 | 4.0 | 0.00 | 0.00 | 0.00 | 77 | 1010.4 |
| 20260902022016 | 64 | 153 | 0.0 | 3.0 | 0.00 | 0.00 | 0.00 | 77 | 1010.4 |
| 20260902021534 | 64 | 144 | 1.0 | 5.0 | 0.00 | 0.00 | 0.00 | 77 | 1010.4 |
| 20260902021014 | 64 | 102 | 1.0 | 6.0 | 0.00 | 0.00 | 0.00 | 76 | 1010.4 |
| 20260902020513 | 64 | 173 | 2.0 | 6.0 | 0.00 | 0.00 | 0.00 | 75 | 1010.4 |
| 20260902020034 | 64 | 120 | 1.0 | 6.0 | 0.00 | 0.00 | 0.00 | 75 | 1010.4 |
| 20260902015513 | 64 | 146 | 2.0 | 6.0 | 0.00 | 0.00 | 0.00 | 75 | 1010.5 |
| 20260902015014 | 65 | 178 | 1.0 | 5.0 | 0.00 | 0.00 | 0.00 | 75 | 1010.5 |
| 20260902014537 | 65 | 192 | 1.0 | 7.0 | 0.00 | 0.00 | 0.00 | 75 | 1010.6 |
| 20260902014019 | 65 | 195 | 3.0 | 7.0 | 0.00 | 0.00 | 0.00 | 74 | 1010.6 |
| 20260902013513 | 65 | 147 | 2.0 | 7.0 | 0.00 | 0.00 | 0.00 | 75 | 1010.5 |
| 20260902013033 | 65 | 171 | 1.0 | 8.0 | 0.00 | 0.00 | 0.00 | 75 | 1010.5 |
| 20260902012516 | 65 | 196 | 2.0 | 8.0 | 0.00 | 0.00 | 0.00 | 74 | 1010.6 |
| 20260902012012 | 65 | 129 | 3.0 | 7.0 | 0.00 | 0.00 | 0.00 | 74 | 1010.6 |
| 20260902011538 | 65 | 175 | 2.0 | 10.0 | 0.00 | 0.00 | 0.00 | 73 | 1010.6 |
| 20260902011015 | 66 | 200 | 4.0 | 10.0 | 0.00 | 0.00 | 0.00 | 74 | 1010.5 |
| 20260902010513 | 66 | 129 | 2.0 | 5.0 | 0.00 | 0.00 | 0.00 | 76 | 1010.5 |
| 20260902010052 | 66 | 111 | 2.0 | 5.0 | 0.00 | 0.00 | 0.00 | 75 | 1010.4 |
| 20260902005516 | 66 | 111 | 0.0 | 10.0 | 0.00 | 0.00 | 0.00 | 75 | 1010.4 |
| 20260902005014 | 66 | 153 | 3.0 | 10.0 | 0.00 | 0.00 | 0.00 | 74 | 1010.4 |
| 20260902004539 | 66 | 93 | 1.0 | 5.0 | 0.00 | 0.00 | 0.00 | 76 | 1010.4 |
| 20260902004018 | 66 | 170 | 2.0 | 5.0 | 0.00 | 0.00 | 0.00 | 75 | 1010.5 |
| 20260902003515 | 66 | 196 | 1.0 | 6.0 | 0.00 | 0.00 | 0.00 | 75 | 1010.4 |
| 20260902003033 | 66 | 191 | 1.0 | 6.0 | 0.00 | 0.00 | 0.00 | 74 | 1010.4 |
| 20260902002513 | 66 | 144 | 0.0 | 10.0 | 0.00 | 0.00 | 0.00 | 76 | 1010.4 |
| 20260902002015 | 65 | 158 | 1.0 | 10.0 | 0.00 | 0.00 | 0.00 | 75 | 1010.3 |
| 20260902001530 | 66 | 178 | 1.0 | 6.0 | 0.00 | 0.00 | 0.00 | 74 | 1010.4 |
| 20260902001015 | 66 | 41 | 2.0 | 6.0 | 0.00 | 0.00 | 0.00 | 74 | 1010.4 |
| 20260902000517 | 66 | 93 | 1.0 | 6.0 | 0.00 | 0.00 | 0.00 | 75 | 1010.4 |
| 20260902000047 | 65 | 137 | 1.0 | 8.0 | 0.00 | 0.00 | 0.00 | 75 | 1010.4 |
| 20260901235517 | 65 | 165 | 1.0 | 8.0 | 0.00 | 0.00 | 0.00 | 74 | 1010.4 |
| 20260901235015 | 65 | 175 | 2.0 | 7.0 | 0.00 | 0.00 | 0.00 | 75 | 1010.4 |
| 20260901234555 | 65 | 131 | 3.0 | 7.0 | 0.00 | 0.00 | 0.00 | 75 | 1010.4 |
| 20260901234013 | 65 | 141 | 2.0 | 8.0 | 0.00 | 0.00 | 0.00 | 76 | 1010.4 |
| 20260901233515 | 65 | 178 | 2.0 | 8.0 | 0.00 | 0.00 | 0.00 | 76 | 1010.5 |
| 20260901233030 | 65 | 149 | 3.0 | 8.0 | 0.00 | 0.00 | 0.00 | 75 | 1010.4 |
| 20260901232512 | 65 | 144 | 1.0 | 7.0 | 0.00 | 0.00 | 0.00 | 75 | 1010.4 |
| 20260901232013 | 65 | 150 | 3.0 | 7.0 | 0.00 | 0.00 | 0.00 | 75 | 1010.4 |
| 20260901231545 | 65 | 188 | 2.0 | 6.0 | 0.00 | 0.00 | 0.00 | 76 | 1010.4 |
| 20260901231014 | 65 | 111 | 1.0 | 5.0 | 0.00 | 0.00 | 0.00 | 77 | 1010.3 |
| 20260901230517 | 65 | 51 | 0.0 | 5.0 | 0.00 | 0.00 | 0.00 | 79 | 1010.4 |
| 20260901230033 | 65 | 123 | 0.0 | 6.0 | 0.00 | 0.00 | 0.00 | 78 | 1010.4 |
| 20260901225516 | 65 | 123 | 2.0 | 6.0 | 0.00 | 0.00 | 0.00 | 75 | 1010.4 |
| 20260901225016 | 65 | 171 | 2.0 | 5.0 | 0.00 | 0.00 | 0.00 | 74 | 1010.4 |
| 20260901224533 | 65 | 108 | 0.0 | 4.0 | 0.00 | 0.00 | 0.00 | 75 | 1010.4 |
| 20260901224013 | 65 | 111 | 1.0 | 4.0 | 0.00 | 0.00 | 0.00 | 76 | 1010.3 |
| 20260901223516 | 66 | 142 | 1.0 | 4.0 | 0.00 | 0.00 | 0.00 | 74 | 1010.3 |
| 20260901223036 | 66 | 146 | 0.0 | 5.0 | 0.00 | 0.00 | 0.00 | 74 | 1010.3 |
| 20260901222516 | 66 | 146 | 0.0 | 5.0 | 0.00 | 0.00 | 0.00 | 75 | 1010.4 |
| 20260901222013 | 66 | 178 | 0.0 | 5.0 | 0.00 | 0.00 | 0.00 | 74 | 1010.4 |
| 20260901221534 | 66 | 126 | 2.0 | 6.0 | 0.00 | 0.00 | 0.00 | 72 | 1010.3 |
| 20260901221016 | 66 | 144 | 1.0 | 6.0 | 0.00 | 0.00 | 0.00 | 72 | 1010.3 |
| 20260901220516 | 66 | 165 | 3.0 | 7.0 | 0.00 | 0.00 | 0.00 | 71 | 1010.3 |
| 20260901220035 | 66 | 194 | 2.0 | 7.0 | 0.00 | 0.00 | 0.00 | 71 | 1010.3 |
| 20260901215516 | 66 | 178 | 1.0 | 5.0 | 0.00 | 0.00 | 0.00 | 73 | 1010.3 |
| 20260901215018 | 66 | 124 | 1.0 | 3.0 | 0.00 | 0.00 | 0.00 | 73 | 1010.4 |
| 20260901214529 | 67 | 215 | 0.0 | 3.0 | 0.00 | 0.00 | 0.00 | 74 | 1010.4 |
| 20260901214014 | 67 | 9 | 0.0 | 3.0 | 0.00 | 0.00 | 0.00 | 73 | 1010.5 |
| 20260901213513 | 67 | 221 | 0.0 | 3.0 | 0.00 | 0.00 | 0.00 | 72 | 1010.6 |
| 20260901213031 | 67 | 221 | 0.0 | 3.0 | 0.00 | 0.00 | 0.00 | 73 | 1010.6 |
| 20260901212512 | 67 | 108 | 0.0 | 3.0 | 0.00 | 0.00 | 0.00 | 73 | 1010.6 |
| 20260901212016 | 67 | 51 | 0.0 | 4.0 | 0.00 | 0.00 | 0.00 | 72 | 1010.7 |
| 20260901211510 | 67 | 165 | 2.0 | 4.0 | 0.00 | 0.00 | 0.00 | 71 | 1010.9 |
| 20260901211002 | 67 | 205 | 1.0 | 4.0 | 0.00 | 0.00 | 0.00 | 72 | 1010.9 |
| 20260901210504 | 67 | 68 | 1.0 | 5.0 | 0.00 | 0.00 | 0.00 | 72 | 1011.0 |
| 20260901210031 | 67 | 68 | 1.0 | 5.0 | 0.00 | 0.00 | 0.00 | 72 | 1011.0 |
| 20260901205514 | 67 | 101 | 1.0 | 8.0 | 0.00 | 0.00 | 0.00 | 73 | 1011.1 |
| 20260901205016 | 67 | 178 | 2.0 | 8.0 | 0.00 | 0.00 | 0.00 | 71 | 1011.1 |
| 20260901204542 | 67 | 221 | 2.0 | 7.0 | 0.00 | 0.00 | 0.00 | 71 | 1011.2 |
| 20260901204015 | 67 | 201 | 3.0 | 7.0 | 0.00 | 0.00 | 0.00 | 72 | 1011.2 |
| 20260901203519 | 66 | 165 | 2.0 | 7.0 | 0.00 | 0.00 | 0.00 | 72 | 1011.2 |
| 20260901203029 | 66 | 173 | 2.0 | 8.0 | 0.00 | 0.00 | 0.00 | 73 | 1011.2 |
| 20260901202514 | 66 | 175 | 3.0 | 8.0 | 0.00 | 0.00 | 0.00 | 73 | 1011.3 |
| 20260901202016 | 66 | 137 | 1.0 | 8.0 | 0.00 | 0.00 | 0.00 | 74 | 1011.3 |
| 20260901201531 | 66 | 144 | 2.0 | 9.0 | 0.00 | 0.00 | 0.00 | 73 | 1011.4 |
| 20260901201014 | 66 | 164 | 2.0 | 9.0 | 0.00 | 0.00 | 0.00 | 74 | 1011.5 |
| 20260901200517 | 65 | 93 | 1.0 | 7.0 | 0.00 | 0.00 | 0.00 | 75 | 1011.5 |
| 20260901200041 | 65 | 202 | 3.0 | 8.0 | 0.00 | 0.00 | 0.00 | 74 | 1011.5 |
| 20260901195515 | 65 | 137 | 2.0 | 9.0 | 0.00 | 0.00 | 0.00 | 74 | 1011.5 |
| 20260901195018 | 64 | 182 | 5.0 | 9.0 | 0.00 | 0.00 | 0.00 | 74 | 1011.6 |
| 20260901194528 | 64 | 196 | 4.0 | 12.0 | 0.00 | 0.00 | 0.00 | 75 | 1011.5 |
| 20260901194016 | 64 | 142 | 5.0 | 12.0 | 0.00 | 0.00 | 0.00 | 75 | 1011.5 |
| 20260901193513 | 65 | 120 | 6.0 | 12.0 | 0.00 | 0.00 | 0.00 | 73 | 1011.5 |
| 20260901193030 | 65 | 239 | 2.0 | 9.0 | 0.00 | 0.00 | 0.00 | 75 | 1011.4 |
| 20260901192517 | 65 | 117 | 2.0 | 12.0 | 0.00 | 0.00 | 0.00 | 76 | 1011.5 |
| 20260901192018 | 65 | 157 | 4.0 | 12.0 | 0.00 | 0.00 | 0.00 | 75 | 1011.5 |
| 20260901191531 | 65 | 146 | 3.0 | 8.0 | 0.00 | 0.00 | 0.00 | 76 | 1011.4 |
| 20260901191022 | 65 | 182 | 3.0 | 8.0 | 0.00 | 0.00 | 0.00 | 76 | 1011.5 |
| 20260901190516 | 65 | 148 | 3.0 | 11.0 | 0.00 | 0.00 | 0.00 | 75 | 1011.5 |
| 20260901190034 | 65 | 167 | 3.0 | 11.0 | 0.00 | 0.00 | 0.00 | 75 | 1011.4 |
| 20260901185516 | 65 | 178 | 2.0 | 9.0 | 0.00 | 0.00 | 0.00 | 77 | 1011.4 |
| 20260901185015 | 64 | 169 | 2.0 | 9.0 | 0.00 | 0.00 | 0.00 | 76 | 1011.3 |
| 20260901184530 | 64 | 129 | 4.0 | 12.0 | 0.00 | 0.00 | 0.00 | 76 | 1011.3 |
| 20260901184014 | 65 | 147 | 5.0 | 12.0 | 0.00 | 0.00 | 0.00 | 75 | 1011.3 |
| 20260901183515 | 65 | 150 | 3.0 | 8.0 | 0.00 | 0.00 | 0.00 | 76 | 1011.3 |
| 20260901183039 | 65 | 131 | 2.0 | 7.0 | 0.00 | 0.00 | 0.00 | 78 | 1011.2 |
| 20260901182513 | 64 | 232 | 3.0 | 7.0 | 0.00 | 0.00 | 0.00 | 77 | 1011.3 |
| 20260901182016 | 64 | 113 | 1.0 | 11.0 | 0.00 | 0.00 | 0.00 | 79 | 1011.3 |
| 20260901181533 | 64 | 170 | 4.0 | 11.0 | 0.00 | 0.00 | 0.00 | 78 | 1011.3 |
| 20260901181013 | 64 | 167 | 3.0 | 9.0 | 0.00 | 0.00 | 0.00 | 78 | 1011.3 |
| 20260901180515 | 64 | 120 | 0.0 | 5.0 | 0.00 | 0.00 | 0.00 | 79 | 1011.2 |
| 20260901180031 | 64 | 117 | 2.0 | 5.0 | 0.00 | 0.00 | 0.00 | 78 | 1011.1 |
| 20260901175519 | 63 | 221 | 1.0 | 5.0 | 0.00 | 0.00 | 0.00 | 82 | 1011.1 |
| 20260901175012 | 62 | 153 | 1.0 | 6.0 | 0.00 | 0.00 | 0.00 | 82 | 1011.2 |
| 20260901174530 | 62 | 167 | 2.0 | 6.0 | 0.00 | 0.00 | 0.00 | 81 | 1011.1 |
| 20260901174016 | 62 | 153 | 2.0 | 7.0 | 0.00 | 0.00 | 0.00 | 82 | 1011.1 |
| 20260901173512 | 62 | 247 | 2.0 | 8.0 | 0.00 | 0.00 | 0.00 | 83 | 1011.1 |
| 20260901173030 | 62 | 160 | 3.0 | 9.0 | 0.00 | 0.00 | 0.00 | 83 | 1011.1 |
| 20260901172520 | 61 | 144 | 4.0 | 9.0 | 0.00 | 0.00 | 0.00 | 83 | 1011.1 |
| 20260901172017 | 61 | 142 | 2.0 | 9.0 | 0.00 | 0.00 | 0.00 | 84 | 1011.1 |
| 20260901171532 | 61 | 59 | 1.0 | 4.0 | 0.00 | 0.00 | 0.00 | 87 | 1011.1 |
| 20260901171016 | 60 | 51 | 1.0 | 6.0 | 0.00 | 0.00 | 0.00 | 87 | 1011.2 |
| 20260901170514 | 60 | 111 | 3.0 | 6.0 | 0.00 | 0.00 | 0.00 | 86 | 1011.2 |
| 20260901170029 | 59 | 51 | 1.0 | 5.0 | 0.00 | 0.00 | 0.00 | 87 | 1011.2 |
| 20260901165515 | 59 | 178 | 1.0 | 4.0 | 0.00 | 0.00 | 0.00 | 88 | 1011.2 |
| 20260901165016 | 59 | 108 | 1.0 | 7.0 | 0.00 | 0.00 | 0.00 | 87 | 1011.3 |
| 20260901164531 | 58 | 120 | 1.0 | 7.0 | 0.00 | 0.00 | 0.00 | 89 | 1011.3 |
| 20260901164015 | 58 | 153 | 4.0 | 7.0 | 0.00 | 0.00 | 0.00 | 87 | 1011.3 |
| 20260901163515 | 58 | 162 | 1.0 | 8.0 | 0.00 | 0.00 | 0.00 | 89 | 1011.2 |
| 20260901163029 | 58 | 129 | 2.0 | 8.0 | 0.00 | 0.00 | 0.00 | 88 | 1011.2 |
| 20260901162516 | 58 | 160 | 3.0 | 6.0 | 0.00 | 0.00 | 0.00 | 88 | 1011.2 |
| 20260901162015 | 58 | 183 | 3.0 | 6.0 | 0.00 | 0.00 | 0.00 | 89 | 1011.2 |
| 20260901161529 | 58 | 205 | 3.0 | 6.0 | 0.00 | 0.00 | 0.00 | 90 | 1011.2 |
| 20260901161016 | 57 | 156 | 2.0 | 5.0 | 0.00 | 0.00 | 0.00 | 91 | 1011.3 |
| 20260901160514 | 57 | 129 | 1.0 | 4.0 | 0.00 | 0.00 | 0.00 | 92 | 1011.4 |
| 20260901160032 | 57 | 93 | 0.0 | 6.0 | 0.00 | 0.00 | 0.00 | 93 | 1011.4 |
| 20260901155514 | 56 | 129 | 2.0 | 6.0 | 0.00 | 0.00 | 0.00 | 95 | 1011.4 |
| 20260901155017 | 56 | 178 | 1.0 | 4.0 | 0.00 | 0.00 | 0.00 | 96 | 1011.4 |
| 20260901154527 | 55 | 171 | 1.0 | 4.0 | 0.00 | 0.00 | 0.00 | 96 | 1011.4 |
| 20260901154015 | 53 | 193 | 1.0 | 4.0 | 0.00 | 0.00 | 0.00 | 96 | 1011.4 |
| 20260901153518 | 53 | 51 | 0.0 | 1.0 | 0.00 | 0.00 | 0.00 | 96 | 1011.4 |
| 20260901153037 | 53 | 61 | 0.0 | 1.0 | 0.00 | 0.00 | 0.00 | 96 | 1011.4 |
| 20260901152513 | 52 | 68 | 0.0 | 2.0 | 0.00 | 0.00 | 0.00 | 96 | 1011.5 |
| 20260901152017 | 52 | 51 | 0.0 | 2.0 | 0.00 | 0.00 | 0.00 | 96 | 1011.5 |
| 20260901151528 | 52 | 22 | 0.0 | 2.0 | 0.00 | 0.00 | 0.00 | 95 | 1011.4 |
| 20260901151015 | 51 | 61 | 0.0 | 2.0 | 0.00 | 0.00 | 0.00 | 95 | 1011.4 |
| 20260901150519 | 51 | 51 | 0.0 | 2.0 | 0.00 | 0.00 | 0.00 | 95 | 1011.3 |
| 20260901150029 | 51 | 51 | 0.0 | 2.0 | 0.00 | 0.00 | 0.00 | 95 | 1011.2 |
| 20260901145514 | 51 | 93 | 0.0 | 1.0 | 0.00 | 0.00 | 0.00 | 95 | 1011.2 |
| 20260901145013 | 50 | 51 | 0.0 | 1.0 | 0.00 | 0.00 | 0.00 | 95 | 1011.1 |
| 20260901144536 | 50 | 68 | 0.0 | 2.0 | 0.00 | 0.00 | 0.00 | 95 | 1011.1 |
| 20260901144015 | 50 | 93 | 0.0 | 2.0 | 0.00 | 0.00 | 0.00 | 95 | 1011.0 |
| 20260901143515 | 49 | 51 | 0.0 | 1.0 | 0.00 | 0.00 | 0.00 | 94 | 1011.1 |
| 20260901143035 | 49 | 34 | 0.0 | 1.0 | 0.00 | 0.00 | 0.00 | 94 | 1011.1 |
| 20260901142514 | 49 | 68 | 0.0 | 1.0 | 0.00 | 0.00 | 0.00 | 94 | 1011.1 |
| 20260901142014 | 49 | 68 | 0.0 | 1.0 | 0.00 | 0.00 | 0.00 | 94 | 1011.1 |
| 20260901141528 | 49 | 34 | 0.0 | 1.0 | 0.00 | 0.00 | 0.00 | 94 | 1011.1 |
| 20260901141014 | 49 | 93 | 0.0 | 1.0 | 0.00 | 0.00 | 0.00 | 94 | 1011.0 |
| 20260901140516 | 49 | 34 | 0.0 | 1.0 | 0.00 | 0.00 | 0.00 | 94 | 1010.9 |
| 20260901140035 | 49 | 44 | 0.0 | 1.0 | 0.00 | 0.00 | 0.00 | 94 | 1010.9 |
| 20260901135516 | 49 | 51 | 0.0 | 1.0 | 0.00 | 0.00 | 0.00 | 94 | 1011.0 |
| 20260901135012 | 49 | 93 | 0.0 | 1.0 | 0.00 | 0.00 | 0.00 | 94 | 1010.9 |
| 20260901134528 | 49 | 51 | 0.0 | 1.0 | 0.00 | 0.00 | 0.00 | 94 | 1010.7 |
| 20260901134012 | 49 | 68 | 0.0 | 1.0 | 0.00 | 0.00 | 0.00 | 94 | 1010.7 |
| 20260901133513 | 49 | 61 | 0.0 | 1.0 | 0.00 | 0.00 | 0.00 | 94 | 1010.6 |
| 20260901133039 | 49 | 51 | 0.0 | 1.0 | 0.00 | 0.00 | 0.00 | 94 | 1010.6 |
| 20260901132513 | 49 | 61 | 0.0 | 1.0 | 0.00 | 0.00 | 0.00 | 94 | 1010.6 |
| 20260901132016 | 49 | 68 | 0.0 | 1.0 | 0.00 | 0.00 | 0.00 | 94 | 1010.6 |
| 20260901131533 | 49 | 51 | 0.0 | 1.0 | 0.00 | 0.00 | 0.00 | 93 | 1010.6 |
| 20260901131016 | 49 | 61 | 0.0 | 1.0 | 0.00 | 0.00 | 0.00 | 94 | 1010.4 |
| 20260901130516 | 49 | 68 | 0.0 | 1.0 | 0.00 | 0.00 | 0.00 | 94 | 1010.4 |
| 20260901130030 | 49 | 34 | 0.0 | 1.0 | 0.00 | 0.00 | 0.00 | 94 | 1010.3 |
| 20260901125515 | 49 | 93 | 0.0 | 1.0 | 0.00 | 0.00 | 0.00 | 93 | 1010.1 |
| 20260901125012 | 49 | 34 | 0.0 | 1.0 | 0.00 | 0.00 | 0.00 | 93 | 1010.0 |
| 20260901124529 | 49 | 51 | 0.0 | 1.0 | 0.00 | 0.00 | 0.00 | 93 | 1009.9 |
| 20260901124012 | 49 | 68 | 0.0 | 1.0 | 0.00 | 0.00 | 0.00 | 93 | 1009.9 |
| 20260901123516 | 48 | 51 | 0.0 | 1.0 | 0.00 | 0.00 | 0.00 | 93 | 1009.9 |
| 20260901123030 | 49 | 9 | 0.0 | 1.0 | 0.00 | 0.00 | 0.00 | 93 | 1009.9 |
| 20260901122516 | 49 | 68 | 0.0 | 1.0 | 0.00 | 0.00 | 0.00 | 93 | 1009.8 |
| 20260901122015 | 49 | 51 | 0.0 | 1.0 | 0.00 | 0.00 | 0.00 | 93 | 1009.9 |
| 20260901121506 | 49 | 9 | 0.0 | 1.0 | 0.00 | 0.00 | 0.00 | 93 | 1009.9 |
| 20260901121004 | 49 | 34 | 0.0 | 1.0 | 0.00 | 0.00 | 0.00 | 93 | 1009.9 |
| 20260901120504 | 49 | 51 | 0.0 | 1.0 | 0.00 | 0.00 | 0.00 | 93 | 1009.9 |
| 20260901120007 | 49 | 51 | 0.0 | 1.0 | 0.00 | 0.00 | 0.00 | 92 | 1009.9 |
| 20260901115503 | 49 | 51 | 0.0 | 1.0 | 0.00 | 0.00 | 0.00 | 93 | 1010.0 |
| 20260901115004 | 49 | 68 | 0.0 | 1.0 | 0.00 | 0.00 | 0.00 | 93 | 1010.1 |
| 20260901114504 | 49 | 68 | 0.0 | 1.0 | 0.00 | 0.00 | 0.00 | 93 | 1010.0 |
| 20260901114003 | 49 | 68 | 0.0 | 1.0 | 0.00 | 0.00 | 0.00 | 92 | 1010.1 |
| 20260901113505 | 49 | 68 | 0.0 | 1.0 | 0.00 | 0.00 | 0.00 | 92 | 1010.2 |
| 20260901113006 | 49 | 68 | 0.0 | 1.0 | 0.00 | 0.00 | 0.00 | 92 | 1010.2 |
| 20260901112502 | 49 | 68 | 0.0 | 1.0 | 0.00 | 0.00 | 0.00 | 92 | 1010.2 |
| 20260901112003 | 49 | 68 | 0.0 | 1.0 | 0.00 | 0.00 | 0.00 | 92 | 1010.2 |
| 20260901111507 | 49 | 51 | 0.0 | 1.0 | 0.00 | 0.00 | 0.00 | 92 | 1010.3 |
| 20260901111003 | 49 | 34 | 0.0 | 2.0 | 0.00 | 0.00 | 0.00 | 92 | 1010.3 |
| 20260901110504 | 49 | 68 | 0.0 | 2.0 | 0.00 | 0.00 | 0.00 | 92 | 1010.3 |
| 20260901110007 | 49 | 61 | 0.0 | 2.0 | 0.00 | 0.00 | 0.00 | 92 | 1010.3 |
| 20260901105504 | 49 | 51 | 0.0 | 1.0 | 0.00 | 0.00 | 0.00 | 91 | 1010.3 |
| 20260901105005 | 50 | 9 | 0.0 | 1.0 | 0.00 | 0.00 | 0.00 | 91 | 1010.3 |
| 20260901104505 | 50 | 76 | 0.0 | 2.0 | 0.00 | 0.00 | 0.00 | 91 | 1010.3 |
| 20260901104003 | 50 | 76 | 0.0 | 2.0 | 0.00 | 0.00 | 0.00 | 91 | 1010.2 |
| 20260901103502 | 50 | 68 | 0.0 | 1.0 | 0.00 | 0.00 | 0.00 | 91 | 1010.2 |
| 20260901103005 | 50 | 51 | 0.0 | 1.0 | 0.00 | 0.00 | 0.00 | 91 | 1010.2 |
| 20260901102505 | 50 | 51 | 0.0 | 1.0 | 0.00 | 0.00 | 0.00 | 91 | 1010.2 |
| 20260901102003 | 50 | 68 | 0.0 | 1.0 | 0.00 | 0.00 | 0.00 | 91 | 1010.2 |
| 20260901101504 | 50 | 51 | 0.0 | 1.0 | 0.00 | 0.00 | 0.00 | 91 | 1010.2 |
| 20260901101004 | 50 | 51 | 0.0 | 1.0 | 0.00 | 0.00 | 0.00 | 91 | 1010.2 |
| 20260901100504 | 50 | 68 | 0.0 | 1.0 | 0.00 | 0.00 | 0.00 | 91 | 1010.1 |
| 20260901100003 | 51 | 68 | 0.0 | 1.0 | 0.00 | 0.00 | 0.00 | 92 | 1010.2 |
| 20260901095502 | 51 | 93 | 0.0 | 1.0 | 0.00 | 0.00 | 0.00 | 92 | 1010.1 |
| 20260901095003 | 51 | 68 | 0.0 | 2.0 | 0.00 | 0.00 | 0.00 | 92 | 1010.1 |
| 20260901094531 | 51 | 51 | 0.0 | 2.0 | 0.00 | 0.00 | 0.00 | 92 | 1010.1 |
| 20260901094014 | 51 | 51 | 0.0 | 1.0 | 0.00 | 0.00 | 0.00 | 91 | 1010.1 |
| 20260901093513 | 51 | 34 | 0.0 | 1.0 | 0.00 | 0.00 | 0.00 | 91 | 1010.0 |
| 20260901093033 | 51 | 51 | 0.0 | 1.0 | 0.00 | 0.00 | 0.00 | 91 | 1009.9 |
| 20260901092512 | 51 | 51 | 0.0 | 1.0 | 0.00 | 0.00 | 0.00 | 91 | 1010.0 |
| 20260901092015 | 51 | 9 | 0.0 | 1.0 | 0.00 | 0.00 | 0.00 | 91 | 1009.9 |
| 20260901091551 | 51 | 68 | 0.0 | 1.0 | 0.00 | 0.00 | 0.00 | 91 | 1009.9 |
| 20260901091013 | 51 | 68 | 0.0 | 1.0 | 0.00 | 0.00 | 0.00 | 91 | 1009.9 |
| 20260901090514 | 51 | 51 | 0.0 | 1.0 | 0.00 | 0.00 | 0.00 | 91 | 1009.9 |
| 20260901090031 | 52 | 51 | 0.0 | 2.0 | 0.00 | 0.00 | 0.00 | 91 | 1009.8 |
| 20260901085517 | 52 | 9 | 0.0 | 2.0 | 0.00 | 0.00 | 0.00 | 91 | 1009.8 |
| 20260901085013 | 52 | 68 | 0.0 | 1.0 | 0.00 | 0.00 | 0.00 | 91 | 1009.8 |
| 20260901084533 | 52 | 51 | 0.0 | 1.0 | 0.00 | 0.00 | 0.00 | 90 | 1009.9 |
| 20260901084019 | 52 | 93 | 0.0 | 1.0 | 0.00 | 0.00 | 0.00 | 90 | 1009.9 |
| 20260901083514 | 52 | 51 | 0.0 | 1.0 | 0.00 | 0.00 | 0.00 | 90 | 1009.9 |
| 20260901083032 | 52 | 51 | 0.0 | 1.0 | 0.00 | 0.00 | 0.00 | 90 | 1010.0 |
| 20260901082514 | 52 | 51 | 0.0 | 1.0 | 0.00 | 0.00 | 0.00 | 90 | 1010.0 |
| 20260901082011 | 52 | 9 | 0.0 | 1.0 | 0.00 | 0.00 | 0.00 | 90 | 1009.9 |
| 20260901081529 | 52 | 51 | 0.0 | 1.0 | 0.00 | 0.00 | 0.00 | 90 | 1009.9 |
| 20260901081012 | 53 | 93 | 0.0 | 1.0 | 0.00 | 0.00 | 0.00 | 90 | 1009.9 |
| 20260901080516 | 53 | 9 | 0.0 | 1.0 | 0.00 | 0.00 | 0.00 | 90 | 1009.9 |
| 20260901080031 | 53 | 93 | 0.0 | 1.0 | 0.00 | 0.00 | 0.00 | 90 | 1009.9 |
| 20260901075517 | 53 | 9 | 0.0 | 1.0 | 0.00 | 0.00 | 0.00 | 89 | 1009.9 |
| 20260901075016 | 53 | 51 | 0.0 | 1.0 | 0.00 | 0.00 | 0.00 | 89 | 1009.9 |
| 20260901074530 | 53 | 51 | 0.0 | 1.0 | 0.00 | 0.00 | 0.00 | 89 | 1009.9 |
| 20260901074013 | 53 | 93 | 0.0 | 1.0 | 0.00 | 0.00 | 0.00 | 89 | 1009.9 |
| 20260901073514 | 53 | 51 | 0.0 | 1.0 | 0.00 | 0.00 | 0.00 | 89 | 1009.8 |
| 20260901073033 | 54 | 9 | 0.0 | 1.0 | 0.00 | 0.00 | 0.00 | 89 | 1009.8 |
| 20260901072513 | 54 | 9 | 0.0 | 1.0 | 0.00 | 0.00 | 0.00 | 89 | 1009.9 |
| 20260901072015 | 54 | 51 | 0.0 | 1.0 | 0.00 | 0.00 | 0.00 | 89 | 1009.8 |
| 20260901071530 | 54 | 9 | 0.0 | 1.0 | 0.00 | 0.00 | 0.00 | 89 | 1009.8 |
| 20260901071019 | 54 | 51 | 0.0 | 1.0 | 0.00 | 0.00 | 0.00 | 88 | 1009.8 |
| 20260901070513 | 54 | 9 | 0.0 | 1.0 | 0.00 | 0.00 | 0.00 | 88 | 1009.7 |
| 20260901070035 | 54 | 68 | 0.0 | 1.0 | 0.00 | 0.00 | 0.00 | 88 | 1009.8 |
| 20260901065515 | 55 | 51 | 0.0 | 1.0 | 0.00 | 0.00 | 0.00 | 88 | 1009.8 |
| 20260901065014 | 55 | 9 | 0.0 | 1.0 | 0.00 | 0.00 | 0.00 | 88 | 1009.8 |
| 20260901064536 | 55 | 68 | 0.0 | 1.0 | 0.00 | 0.00 | 0.00 | 88 | 1009.9 |
| 20260901064015 | 55 | 265 | 0.0 | 1.0 | 0.00 | 0.00 | 0.00 | 87 | 1009.9 |
| 20260901063516 | 55 | 9 | 0.0 | 1.0 | 0.00 | 0.00 | 0.00 | 87 | 1009.8 |
| 20260901063032 | 55 | 51 | 0.0 | 1.0 | 0.00 | 0.00 | 0.00 | 87 | 1009.9 |
| 20260901062516 | 55 | 51 | 0.0 | 1.0 | 0.00 | 0.00 | 0.00 | 88 | 1009.9 |
| 20260901062015 | 56 | 67 | 0.0 | 1.0 | 0.00 | 0.00 | 0.00 | 87 | 1010.0 |
| 20260901061530 | 56 | 9 | 0.0 | 1.0 | 0.00 | 0.00 | 0.00 | 87 | 1010.1 |
| 20260901061014 | 56 | 51 | 0.0 | 1.0 | 0.00 | 0.00 | 0.00 | 87 | 1010.2 |
| 20260901060516 | 56 | 93 | 0.0 | 1.0 | 0.00 | 0.00 | 0.00 | 87 | 1010.2 |
| 20260901060035 | 56 | 68 | 0.0 | 1.0 | 0.00 | 0.00 | 0.00 | 87 | 1010.2 |
| 20260901055512 | 56 | 51 | 0.0 | 1.0 | 0.00 | 0.00 | 0.00 | 86 | 1010.2 |
| 20260901055012 | 56 | 34 | 0.0 | 1.0 | 0.00 | 0.00 | 0.00 | 86 | 1010.3 |
| 20260901054529 | 57 | 51 | 0.0 | 1.0 | 0.00 | 0.00 | 0.00 | 86 | 1010.3 |
| 20260901054014 | 57 | 51 | 0.0 | 1.0 | 0.00 | 0.00 | 0.00 | 85 | 1010.3 |
| 20260901053516 | 57 | 51 | 0.0 | 1.0 | 0.00 | 0.00 | 0.00 | 86 | 1010.4 |
| 20260901053030 | 57 | 265 | 0.0 | 1.0 | 0.00 | 0.00 | 0.00 | 85 | 1010.3 |
| 20260901052513 | 57 | 34 | 0.0 | 0.0 | 0.00 | 0.00 | 0.00 | 85 | 1010.2 |
| 20260901052016 | 58 | 9 | 0.0 | 0.0 | 0.00 | 0.00 | 0.00 | 85 | 1010.2 |
| 20260901051533 | 58 | 51 | 0.0 | 1.0 | 0.00 | 0.00 | 0.00 | 84 | 1010.2 |